Regional Weather Roundup
Issued by NWS

Home | Current Version | Previous Version | Graphics & Text | Print | Product List | Glossary On
Versions: 1 2 3 4 5 6 7 8 9 10 11 12 13 14 15 16 17 18 19 20 21 22 23 24 25 26 27 28 29 30 31 32 33 34 35 36 37 38 39 40 41 42 43 44 45 46 47 48 49 50
820
ASUS45 KTFX 311910
RWRMT
MONTANA REGIONAL WEATHER ROUNDUP
NATIONAL WEATHER SERVICE GREAT FALLS MT
100 PM MDT TUE MAY 31 2016

NOTE: "FAIR" INDICATES FEW OR NO CLOUDS BELOW 12000 FEET WITH NO
SIGNIFICANT WEATHER AND/OR OBSTRUCTIONS TO VISIBILITY.

MTZ001>007-043-312000-
WEST OF THE DIVIDE

CITY           SKY/WX    TMP DP  RH WIND       PRES   REMARKS
KALISPELL      MOSUNNY   64  38  38 SE5       30.17F
MISSOULA       MOSUNNY   66  31  27 VRB3      30.17F
BUTTE          PTSUNNY   55  28  35 MISG      30.22F
MULLAN PASS    SUNNY     54  27  35 VRB5      30.22F
ANACONDA         N/A     55  30  38 N8        30.21S
DEER LODGE       N/A     55  32  41 N6        30.23S
EUREKA           N/A     64  34  32 N5        30.17F
HAMILTON         N/A     63  32  31 N7        30.15F
LIBBY            N/A     68  28  22 CALM      30.16F
$$

MTZ008-052>055-312000-
SOUTHWEST MONTANA

CITY           SKY/WX    TMP DP  RH WIND       PRES   REMARKS
BOZEMAN        CLOUDY    56  33  42 CALM      30.23F
DILLON         SUNNY     59  30  33 NE8       30.20F
W YELLOWSTONE  MOSUNNY   50  23  34 NE7G16    30.23F
ENNIS          SUNNY     55  28  35 NW15      30.26F
$$

MTZ009-010-012-014-046-048-049-054-312000-
EAST SLOPES AND CENTRAL MONTANA

CITY           SKY/WX    TMP DP  RH WIND       PRES   REMARKS
CUT BANK       PTSUNNY   58  34  40 NW13      30.21F
GREAT FALLS    MOSUNNY   60  36  40 NW9G20    30.22F
MALMSTROM AFB  MOSUNNY   58  37  45 NW14G22   30.22F
HELENA         MOSUNNY   60  35  39 VRB5      30.22F
CHOTEAU          N/A     57  36  44 N12G18    30.23F
$$

MTZ011-013-016-021-045-047-050-051-312000-
NORTH CENTRAL MONTANA

CITY           SKY/WX    TMP DP  RH WIND       PRES   REMARKS
HAVRE          CLOUDY    56  46  69 NW13      30.16F
LEWISTOWN      CLOUDY    47  42  83 NW13G20   30.21F
N BAR RANCH    PTSUNNY   50  41  71 NW23G31   30.20R
CHINOOK          N/A     55  48  76 NW10      30.14F
$$

MTZ017>020-022>027-061-062-312000-
NORTHEAST MONTANA

CITY           SKY/WX    TMP DP  RH WIND       PRES   REMARKS
GLASGOW        PTSUNNY   62  46  55 N28G33    29.99F
JORDAN           N/A     58  49  72 NW21G32   30.04R
SIDNEY         CLOUDY    55  52  88 N25G31    29.85R
WOLF POINT     CLOUDY    59  49  69 NW17G23   29.95R
POPLAR           N/A     55  48  76 N14       29.93R
$$

MTZ028>42-056>058-312000-
SOUTHCENTRAL AND SOUTHEAST MONTANA

CITY           SKY/WX    TMP DP  RH WIND       PRES   REMARKS
BAKER          LGT RAIN  51  32  48 NW28G40   29.91R
BILLINGS       CLOUDY    61  37  41 NW20G29   30.16S
LIVINGSTON     PTSUNNY   59  35  40 W15       30.20F
MILES CITY     LGT RAIN  52  50  93 NW22G31   30.02R
FORSYTH          N/A     54  48  82 W23G29    30.07R
$$

REGIONAL REPORTS...DAKOTAS

CITY           SKY/WX    TMP DP  RH WIND       PRES   REMARKS
WILLISTON      RAIN      54  50  86 N29G37    29.81R FOG
MINOT          PTSUNNY   68  48  48 S10G17    29.61R
DICKINSON      LGT RAIN  50  48  93 NW31G40   29.69R
BEACH          LGT RAIN  50  50 100 NW30G39   29.88R
CROSBY         RAIN      50  50 100 N25G39    29.84R
WATFORD CITY   RAIN      50  48  93 N31G40    29.76R
BISMARCK       LGT RAIN  58  51  78 W17       29.67F
GRAND FORKS    PTSUNNY   66  53  63 SW20G28   29.69S
FARGO          CLOUDY    66  47  50 SW21G26   29.75S
BUFFALO SD       N/A     54  48  80 W38G46    29.83R
RAPID CITY     CLOUDY    63  38  39 W20G30    29.96S
$$

REGIONAL REPORTS...WYOMING/IDAHO/WASHINGTON

CITY           SKY/WX    TMP DP  RH WIND       PRES   REMARKS
GILLETTE       PTSUNNY   56  40  55 NW26G40   30.08F
SHERIDAN       CLOUDY    55  37  50 N24G38    30.14F
BUFFALO WY     CLOUDY    52  36  54 N31G38    30.12R
CODY           CLOUDY    57  36  44 N10G16    30.17F
YELLOWSTONE LA   N/A     47  24  40 SE8       30.26F
IDAHO FALLS    SUNNY     65  28  24 NE12      30.16F
SALMON         SUNNY     64  28  25 N6        30.12F
BOISE          SUNNY     71  27  19 CALM      30.10F
SPOKANE        MOSUNNY   71  35  26 NE3       30.15F
$$

REGIONAL REPORTS...ALBERTA

CITY           SKY/WX    TMP DP  RH WIND       PRES   REMARKS
EDMONTON       MOSUNNY   59  43  55 CALM      30.16F
CALGARY        PTSUNNY   61  36  39 VRB5      30.19F
LETHBRIDGE     PTSUNNY   59  37  44 W12G17    30.20F
MEDICINE HAT   CLOUDY    57  48  72 NW12      30.16F
WATERTON GATE    N/A     57  37  47 N6          N/A
CARDSTON         N/A     57  36  44 NW6         N/A
MILK RIVER       N/A     55  41  58 N13         N/A
$$

REGIONAL REPORTS...SASKATCHEWAN

CITY           SKY/WX    TMP DP  RH WIND       PRES   REMARKS
SWIFT CURRENT  RAIN      50  45  81 N18G28    30.06R
REGINA         CLOUDY    54  50  87 N18       29.94F
SASKATOON      CLOUDY    61  46  59 N15       30.05F
CYPRESS HILLS    N/A     45  43  93 NW8         N/A
VAL MARIE        N/A     61  46  59 N23G32      N/A
ROCKGLEN         N/A     52  50  93 N20G30      N/A
$$




USA.gov is the U.S. government's official web portal to all federal, state and local government web resources and services.